Location: Unspecified
(29.9680°N, 0.0000°E)
Time: 13:11:01
(UTC+00:00)

Vanguard 1 Rocket - Pass Details

Date: 25 June 2019
Orbit: 652 x 4224 km, 34.3° (Epoch: 24 August)

Event Time Altitude Azimuth Distance (km) Brightness Sun altitude
Rises 21:19:18 0° 288° (WNW) 5,554 12.4 -23.8°
Reaches altitude 10° 21:23:44 10° 288° (WNW) 3,986 11.4 -24.4°
Maximum altitude 21:32:56 75° 204° (SSW) 1,068 7.5 -25.7°
Enters shadow 21:33:55 62° 145° (SE) 1,088 7.4 -25.8°
